,,Stat6,,Stat2,,Stat8,,Stat9,,Stat10,,Wind1,,Wind1,
time,status,PA1M_AVG,status,PR1M_SUM,status,RH1M_AVG,status,SR1M_AVG,status,TA1M_AVG,status,W1dAve1m,status,W1sAve1m,
2007-06-25, 00:00:00,VALID,918.095,VALID,0,VALID,100,VALID,0.0169808,VALID,21.3815,VALID,7,VALID,1.48692,
2007-06-25, 00:01:00,VALID,918.068,VALID,0,VALID,100,VALID,0.0169808,VALID,21.3788,VALID,32,VALID,1.31392,
2007-06-25, 00:02:00,VALID,918.076,VALID,0,VALID,100,VALID,0.0169808,VALID,21.3753,VALID,31,VALID,0.964935,
2007-06-25, 00:03:00,VALID,918.065,VALID,0,VALID,100,VALID,0,VALID,21.362,VALID,32,VALID,1.6533,
2007-06-25, 00:04:00,VALID,918.073,VALID,0,VALID,100,VALID,0,VALID,21.3558,VALID,24,VALID,1.32404,
2007-06-25, 00:05:00,VALID,918.084,VALID,0,VALID,100,VALID,0,VALID,21.3461,VALID,14,VALID,0.508003,
2007-06-25, 00:06:00,VALID,918.088,VALID,0,VALID,100,VALID,0,VALID,21.3328,VALID,357,VALID,0.518714,
2007-06-25, 00:07:00,VALID,918.07,VALID,0,VALID,100,VALID,-0.0169808,VALID,21.3366,VALID,343,VALID,0.857422,
2007-06-25, 00:08:00,VALID,918.04,VALID,0,VALID,100,VALID,0.0339617,VALID,21.2933,VALID,5,VALID,1.17773,
2007-06-25, 00:09:00,VALID,918.021,VALID,0,VALID,100,VALID,0.0169808,VALID,21.2844,VALID,9,VALID,0.897693,
2007-06-25, 00:10:00,VALID,918.009,VALID,0,VALID,100,VALID,0,VALID,21.2773,VALID,17,VALID,0.508814,
2007-06-25, 00:11:00,VALID,918.016,VALID,0,VALID,100,VALID,0.0339617,VALID,21.2811,VALID,14,VALID,0.223028,
2007-06-25, 00:12:00,VALID,918.023,VALID,0,VALID,100,VALID,0.0509425,VALID,21.2714,VALID,14,VALID,0.0414244,
2007-06-25, 00:13:00,VALID,918.019,VALID,0,VALID,100,VALID,0,VALID,21.2584,VALID,14,VALID,0.14881,
2007-06-25, 00:14:00,VALID,918.021,VALID,0,VALID,100,VALID,0,VALID,21.2681,VALID,14,VALID,0,
2007-06-25, 00:15:00,VALID,918.035,VALID,0,VALID,100,VALID,0,VALID,21.2587,VALID,14,VALID,0,
2007-06-25, 00:16:00,VALID,918.058,VALID,0,VALID,100,VALID,-0.0169808,VALID,21.2617,VALID,14,VALID,0,
2007-06-25, 00:17:00,VALID,918.052,VALID,0,VALID,100,VALID,0.0169808,VALID,21.2649,VALID,14,VALID,0.376002,
2007-06-25, 00:18:00,VALID,918.058,VALID,0,VALID,100,VALID,0,VALID,21.2617,VALID,15,VALID,0.665551,
2007-06-25, 00:19:00,VALID,918.035,VALID,0,VALID,100,VALID,-0.0169808,VALID,21.2422,VALID,21,VALID,0.758371,
2007-06-25, 00:20:00,VALID,918.015,VALID,0,VALID,100,VALID,0,VALID,21.2092,VALID,28,VALID,0.795686,
2007-06-25, 00:21:00,VALID,917.989,VALID,0,VALID,100,VALID,0.0679233,VALID,21.1927,VALID,29,VALID,0.816051,
2007-06-25, 00:22:00,VALID,917.961,VALID,0,VALID,100,VALID,0.0339617,VALID,21.2067,VALID,35,VALID,1.02934,
2007-06-25, 00:23:00,VALID,917.952,VALID,0,VALID,100,VALID,0.0169808,VALID,21.1835,VALID,38,VALID,0.815163,
2007-06-25, 00:24:00,VALID,917.946,VALID,0,VALID,100,VALID,0,VALID,21.1902,VALID,38,VALID,0.408594,
2007-06-25, 00:25:00,VALID,917.945,VALID,0,VALID,100,VALID,-0.0169808,VALID,21.1897,VALID,38,VALID,0.115972,
2007-06-25, 00:26:00,VALID,917.963,VALID,0,VALID,100,VALID,0,VALID,21.19,VALID,39,VALID,0.537574,
2007-06-25, 00:27:00,VALID,917.968,VALID,0,VALID,100,VALID,0.0169808,VALID,21.1708,VALID,41,VALID,0.78995,
2007-06-25, 00:28:00,VALID,917.967,VALID,0,VALID,100,VALID,0,VALID,21.1058,VALID,34,VALID,0.653161,
2007-06-25, 00:29:00,VALID,917.967,VALID,0,VALID,100,VALID,0,VALID,21.0799,VALID,14,VALID,0.24043,
2007-06-25, 00:30:00,VALID,917.964,VALID,0,VALID,100,VALID,-0.0169808,VALID,21.0669,VALID,14,VALID,0.277248,
2007-06-25, 00:31:00,VALID,917.934,VALID,0,VALID,100,VALID,-0.0169808,VALID,21.0639,VALID,14,VALID,0.174805,
2007-06-25, 00:32:00,VALID,917.918,VALID,0,VALID,100,VALID,0,VALID,21.0539,VALID,14,VALID,0.306691,
2007-06-25, 00:33:00,VALID,917.889,VALID,0,VALID,100,VALID,-0.0169808,VALID,21.0347,VALID,16,VALID,0.693859,
2007-06-25, 00:34:00,VALID,917.875,VALID,0,VALID,100,VALID,0,VALID,21.0152,VALID,28,VALID,1.012,
2007-06-25, 00:35:00,VALID,917.868,VALID,0,VALID,100,VALID,0.0169808,VALID,20.972,VALID,31,VALID,1.11426,
2007-06-25, 00:36:00,VALID,917.871,VALID,0,VALID,100,VALID,0,VALID,20.9527,VALID,27,VALID,1.01225,
2007-06-25, 00:37:00,VALID,917.875,VALID,0,VALID,100,VALID,-0.0339617,VALID,20.9563,VALID,17,VALID,1.20385,
2007-06-25, 00:38:00,VALID,917.877,VALID,0,VALID,100,VALID,-0.0169808,VALID,20.9438,VALID,21,VALID,1.30124,
2007-06-25, 00:39:00,VALID,917.873,VALID,0,VALID,100,VALID,0,VALID,20.9273,VALID,21,VALID,0.944767,
2007-06-25, 00:40:00,VALID,917.85,VALID,0,VALID,100,VALID,-0.0339617,VALID,20.9273,VALID,20,VALID,0.783296,
2007-06-25, 00:41:00,VALID,917.813,VALID,0,VALID,100,VALID,0,VALID,20.9241,VALID,20,VALID,0.818359,
2007-06-25, 00:42:00,VALID,917.764,VALID,0,VALID,100,VALID,-0.0339617,VALID,20.8948,VALID,20,VALID,0.629092,
2007-06-25, 00:43:00,VALID,917.715,VALID,0,VALID,100,VALID,0,VALID,20.8854,VALID,20,VALID,0.569568,
2007-06-25, 00:44:00,VALID,917.719,VALID,0,VALID,100,VALID,0.0169808,VALID,20.8813,VALID,20,VALID,0.426847,
2007-06-25, 00:45:00,VALID,917.757,VALID,0,VALID,100,VALID,0.0169808,VALID,20.9013,VALID,20,VALID,0.0822088,
2007-06-25, 00:46:00,VALID,917.76,VALID,0,VALID,100,VALID,-0.0339617,VALID,20.9111,VALID,20,VALID,0,
2007-06-25, 00:47:00,VALID,917.748,VALID,0,VALID,100,VALID,0,VALID,20.9238,VALID,20,VALID,0,
2007-06-25, 00:48:00,VALID,917.712,VALID,0,VALID,100,VALID,0,VALID,20.9205,VALID,20,VALID,0,
2007-06-25, 00:49:00,VALID,917.693,VALID,0,VALID,100,VALID,0,VALID,20.9113,VALID,20,VALID,0,
2007-06-25, 00:50:00,VALID,917.695,VALID,0,VALID,100,VALID,0.0169808,VALID,20.8713,VALID,20,VALID,0,
2007-06-25, 00:51:00,VALID,917.705,VALID,0,VALID,100,VALID,-0.0339617,VALID,20.8656,VALID,20,VALID,0,
2007-06-25, 00:52:00,VALID,917.693,VALID,0,VALID,100,VALID,-0.0169808,VALID,20.8591,VALID,20,VALID,0,
2007-06-25, 00:53:00,VALID,917.661,VALID,0,VALID,100,VALID,-0.0169808,VALID,20.8497,VALID,20,VALID,0,
2007-06-25, 00:54:00,VALID,917.637,VALID,0,VALID,100,VALID,-0.0339617,VALID,20.8302,VALID,20,VALID,0,
2007-06-25, 00:55:00,VALID,917.615,VALID,0,VALID,100,VALID,0,VALID,20.8042,VALID,20,VALID,0.0984375,
2007-06-25, 00:56:00,VALID,917.62,VALID,0,VALID,100,VALID,-0.0509425,VALID,20.7647,VALID,20,VALID,0,
2007-06-25, 00:57:00,VALID,917.625,VALID,0,VALID,100,VALID,-0.0509425,VALID,20.7423,VALID,20,VALID,0,
2007-06-25, 00:58:00,VALID,917.635,VALID,0,VALID,100,VALID,-0.0509425,VALID,20.7358,VALID,20,VALID,0,
2007-06-25, 00:59:00,VALID,917.611,VALID,0,VALID,100,VALID,-0.0339617,VALID,20.7785,VALID,20,VALID,0.0203887,
2007-06-25, 01:00:00,VALID,917.567,VALID,0,VALID,100,VALID,-0.0679233,VALID,20.8269,VALID,20,VALID,0.00109012,
2007-06-25, 01:01:00,VALID,917.53,VALID,0,VALID,100,VALID,-0.0679233,VALID,20.8659,VALID,20,VALID,0.0424679,
2007-06-25, 01:02:00,VALID,917.513,VALID,0,VALID,100,VALID,-0.0339617,VALID,20.8886,VALID,20,VALID,0,
2007-06-25, 01:03:00,VALID,917.528,VALID,0,VALID,100,VALID,-0.0849042,VALID,20.9048,VALID,20,VALID,0.0187872,
2007-06-25, 01:04:00,VALID,917.527,VALID,0,VALID,100,VALID,-0.0509425,VALID,20.9016,VALID,20,VALID,0.0488281,
2007-06-25, 01:05:00,VALID,917.516,VALID,0,VALID,100,VALID,-0.0509425,VALID,20.9178,VALID,20,VALID,0.22218,
2007-06-25, 01:06:00,VALID,917.51,VALID,0,VALID,100,VALID,-0.0339617,VALID,20.947,VALID,346,VALID,0.340892,
2007-06-25, 01:07:00,VALID,917.503,VALID,0,VALID,100,VALID,0,VALID,20.943,VALID,317,VALID,0.469703,
2007-06-25, 01:08:00,VALID,917.501,VALID,0,VALID,100,VALID,-0.0509425,VALID,20.9433,VALID,285,VALID,0.37843,
2007-06-25, 01:09:00,VALID,917.491,VALID,0,VALID,100,VALID,-0.0339617,VALID,20.9435,VALID,285,VALID,0.327324,
2007-06-25, 01:10:00,VALID,917.494,VALID,0,VALID,100,VALID,0,VALID,20.9468,VALID,285,VALID,0.223958,
2007-06-25, 01:11:00,VALID,917.47,VALID,0,VALID,100,VALID,-0.0169808,VALID,20.95,VALID,285,VALID,0.00666921,
2007-06-25, 01:12:00,VALID,917.462,VALID,0,VALID,100,VALID,-0.0339617,VALID,20.9633,VALID,285,VALID,0,
2007-06-25, 01:13:00,VALID,917.454,VALID,0,VALID,100,VALID,-0.0509425,VALID,20.9698,VALID,285,VALID,0,
2007-06-25, 01:14:00,VALID,917.434,VALID,0,VALID,100,VALID,-0.0169808,VALID,20.9595,VALID,285,VALID,0.0711806,
2007-06-25, 01:15:00,VALID,917.422,VALID,0,VALID,100,VALID,0.101885,VALID,20.9325,VALID,285,VALID,0.0275298,
2007-06-25, 01:16:00,VALID,917.411,VALID,0,VALID,100,VALID,0.0849042,VALID,20.9225,VALID,284,VALID,0.0857515,
2007-06-25, 01:17:00,VALID,917.393,VALID,0,VALID,100,VALID,0.101885,VALID,20.8995,VALID,284,VALID,0.15191,
2007-06-25, 01:18:00,VALID,917.369,VALID,0,VALID,100,VALID,0.0679233,VALID,20.887,VALID,284,VALID,0,
2007-06-25, 01:19:00,VALID,917.347,VALID,0,VALID,100,VALID,0.0849042,VALID,20.9,VALID,282,VALID,0.0612282,
2007-06-25, 01:20:00,VALID,917.337,VALID,0,VALID,100,VALID,0.0849042,VALID,20.896,VALID,267,VALID,0.207403,
2007-06-25, 01:21:00,VALID,917.332,VALID,0,VALID,100,VALID,0.0849042,VALID,20.906,VALID,267,VALID,0.0394176,
2007-06-25, 01:22:00,VALID,917.322,VALID,0,VALID,100,VALID,0.0849042,VALID,20.8897,VALID,267,VALID,0,
2007-06-25, 01:23:00,VALID,917.339,VALID,0,VALID,100,VALID,0.0849042,VALID,20.8543,VALID,248,VALID,0.154811,
2007-06-25, 01:24:00,VALID,917.337,VALID,0,VALID,100,VALID,0.101885,VALID,20.7986,VALID,220,VALID,0.556691,
2007-06-25, 01:25:00,VALID,917.34,VALID,0,VALID,100,VALID,0.0849042,VALID,20.7729,VALID,202,VALID,0.429865,
2007-06-25, 01:26:00,VALID,917.347,VALID,0,VALID,100,VALID,0.101885,VALID,20.7502,VALID,200,VALID,0.0942827,
2007-06-25, 01:27:00,VALID,917.333,VALID,0,VALID,100,VALID,0.101885,VALID,20.7018,VALID,200,VALID,0.015811,
2007-06-25, 01:28:00,VALID,917.323,VALID,0,VALID,99.9402,VALID,0.0849042,VALID,20.6339,VALID,200,VALID,0,
2007-06-25, 01:29:00,VALID,917.302,VALID,0,VALID,99.957,VALID,0.0339617,VALID,20.5825,VALID,200,VALID,0,
2007-06-25, 01:30:00,VALID,917.294,VALID,0,VALID,99.9835,VALID,0,VALID,20.5475,VALID,200,VALID,0,
2007-06-25, 01:31:00,VALID,917.282,VALID,0,VALID,99.9883,VALID,-0.0169808,VALID,20.4978,VALID,200,VALID,0,
2007-06-25, 01:32:00,VALID,917.28,VALID,0,VALID,100,VALID,0,VALID,20.4824,VALID,200,VALID,0,
2007-06-25, 01:33:00,VALID,917.305,VALID,0,VALID,100,VALID,0.0169808,VALID,20.4656,VALID,200,VALID,0.0353338,
2007-06-25, 01:34:00,VALID,917.328,VALID,0,VALID,100,VALID,0,VALID,20.4526,VALID,200,VALID,0.031064,
2007-06-25, 01:35:00,VALID,917.336,VALID,0,VALID,100,VALID,-0.0169808,VALID,20.4367,VALID,200,VALID,0.218936,
2007-06-25, 01:36:00,VALID,917.323,VALID,0,VALID,100,VALID,0,VALID,20.434,VALID,200,VALID,0,
2007-06-25, 01:37:00,VALID,917.318,VALID,0,VALID,100,VALID,0.0169808,VALID,20.411,VALID,199,VALID,0.213356,
2007-06-25, 01:38:00,VALID,917.322,VALID,0,VALID,100,VALID,0,VALID,20.362,VALID,147,VALID,0.554688,
2007-06-25, 01:39:00,VALID,917.355,VALID,0,VALID,100,VALID,-0.0169808,VALID,20.3361,VALID,142,VALID,0.508013,
2007-06-25, 01:40:00,VALID,917.399,VALID,0,VALID,100,VALID,0.0169808,VALID,20.3423,VALID,142,VALID,0.253299,
2007-06-25, 01:41:00,VALID,917.442,VALID,0,VALID,100,VALID,0,VALID,20.3356,VALID,142,VALID,0,
2007-06-25, 01:42:00,VALID,917.463,VALID,0,VALID,100,VALID,0.0169808,VALID,20.3226,VALID,142,VALID,0.228087,
2007-06-25, 01:43:00,VALID,917.453,VALID,0,VALID,100,VALID,-0.0169808,VALID,20.3104,VALID,142,VALID,0.172222,
2007-06-25, 01:44:00,VALID,917.436,VALID,0,VALID,100,VALID,0,VALID,20.2936,VALID,142,VALID,0.206659,
2007-06-25, 01:45:00,VALID,917.411,VALID,0,VALID,100,VALID,-0.0169808,VALID,20.1701,VALID,142,VALID,0.202363,
2007-06-25, 01:46:00,VALID,917.396,VALID,0,VALID,99.9527,VALID,0,VALID,20.0505,VALID,142,VALID,0.0687881,
2007-06-25, 01:47:00,VALID,917.365,VALID,0,VALID,100,VALID,0,VALID,20.0275,VALID,142,VALID,0.193979,
2007-06-25, 01:48:00,VALID,917.348,VALID,0,VALID,100,VALID,-0.0169808,VALID,20.0502,VALID,91,VALID,0.847942,
2007-06-25, 01:49:00,VALID,917.325,VALID,0,VALID,100,VALID,0,VALID,20.2058,VALID,86,VALID,0.617374,
2007-06-25, 01:50:00,VALID,917.311,VALID,0,VALID,100,VALID,0,VALID,20.3101,VALID,86,VALID,0.359896,
2007-06-25, 01:51:00,VALID,917.274,VALID,0,VALID,100,VALID,0.0169808,VALID,20.2969,VALID,86,VALID,0.591974,
2007-06-25, 01:52:00,VALID,917.267,VALID,0,VALID,100,VALID,0.0169808,VALID,20.1578,VALID,57,VALID,0.746003,
2007-06-25, 01:53:00,VALID,917.237,VALID,0,VALID,100,VALID,0,VALID,20.1219,VALID,45,VALID,1.01153,
2007-06-25, 01:54:00,VALID,917.229,VALID,0,VALID,100,VALID,0,VALID,20.1416,VALID,45,VALID,0.921494,
2007-06-25, 01:55:00,VALID,917.211,VALID,0,VALID,100,VALID,0,VALID,20.1708,VALID,45,VALID,0.687695,
2007-06-25, 01:56:00,VALID,917.188,VALID,0,VALID,100,VALID,0.0169808,VALID,20.1503,VALID,45,VALID,0.796875,
2007-06-25, 01:57:00,VALID,917.162,VALID,0,VALID,100,VALID,0,VALID,20.1676,VALID,45,VALID,0.749414,
2007-06-25, 01:58:00,VALID,917.132,VALID,0,VALID,100,VALID,-0.0339617,VALID,20.1519,VALID,45,VALID,0.901101,
2007-06-25, 01:59:00,VALID,917.137,VALID,0,VALID,100,VALID,0,VALID,20.1738,VALID,45,VALID,0.742188,
2007-06-25, 02:00:00,VALID,917.16,VALID,0,VALID,100,VALID,0,VALID,20.2414,VALID,45,VALID,0.42663,
2007-06-25, 02:01:00,VALID,917.164,VALID,0,VALID,100,VALID,0.0339617,VALID,20.2874,VALID,45,VALID,0.167383,
2007-06-25, 02:02:00,VALID,917.159,VALID,0,VALID,100,VALID,0.0169808,VALID,20.3328,VALID,45,VALID,0.120094,
2007-06-25, 02:03:00,VALID,917.151,VALID,0,VALID,100,VALID,0.0169808,VALID,20.3453,VALID,45,VALID,0.0574128,
2007-06-25, 02:04:00,VALID,917.14,VALID,0,VALID,100,VALID,0,VALID,20.368,VALID,45,VALID,0,
2007-06-25, 02:05:00,VALID,917.128,VALID,0,VALID,100,VALID,0.0169808,VALID,20.3975,VALID,45,VALID,0.126758,
2007-06-25, 02:06:00,VALID,917.122,VALID,0,VALID,100,VALID,0,VALID,20.4332,VALID,45,VALID,0.208939,
2007-06-25, 02:07:00,VALID,917.124,VALID,0,VALID,100,VALID,0,VALID,20.4589,VALID,45,VALID,0.104469,
2007-06-25, 02:08:00,VALID,917.115,VALID,0,VALID,100,VALID,0.0169808,VALID,20.4913,VALID,45,VALID,0.00669643,
2007-06-25, 02:09:00,VALID,917.103,VALID,0,VALID,100,VALID,0.0169808,VALID,20.5046,VALID,45,VALID,0,
2007-06-25, 02:10:00,VALID,917.105,VALID,0,VALID,100,VALID,0,VALID,20.5111,VALID,45,VALID,0,
2007-06-25, 02:11:00,VALID,917.117,VALID,0,VALID,100,VALID,0,VALID,20.4748,VALID,45,VALID,0,
2007-06-25, 02:12:00,VALID,917.12,VALID,0,VALID,100,VALID,0,VALID,20.4816,VALID,45,VALID,0,
2007-06-25, 02:13:00,VALID,917.108,VALID,0,VALID,100,VALID,0,VALID,20.5046,VALID,45,VALID,0.176432,
2007-06-25, 02:14:00,VALID,917.096,VALID,0,VALID,100,VALID,0.0339617,VALID,20.5008,VALID,43,VALID,0.587271,
2007-06-25, 02:15:00,VALID,917.083,VALID,0,VALID,100,VALID,0,VALID,20.5078,VALID,27,VALID,0.792969,
2007-06-25, 02:16:00,VALID,917.039,VALID,0,VALID,100,VALID,0.0169808,VALID,20.5108,VALID,26,VALID,0.418155,
2007-06-25, 02:17:00,VALID,916.968,VALID,0,VALID,100,VALID,0.0339617,VALID,20.5238,VALID,10,VALID,0.425426,
2007-06-25, 02:18:01,VALID,916.91,VALID,0,VALID,100,VALID,0.0169808,VALID,20.5338,VALID,6,VALID,0.236637,
2007-06-25, 02:19:01,VALID,916.851,VALID,0,VALID,100,VALID,0.0509425,VALID,20.5433,VALID,6,VALID,0.329397,
2007-06-25, 02:20:00,VALID,916.813,VALID,0,VALID,100,VALID,0,VALID,20.54,VALID,6,VALID,0.143288,
2007-06-25, 02:21:00,VALID,916.809,VALID,0,VALID,100,VALID,0.0339617,VALID,20.5722,VALID,6,VALID,0,
2007-06-25, 02:22:01,VALID,916.824,VALID,0,VALID,100,VALID,0,VALID,20.6147,VALID,6,VALID,0,
2007-06-25, 02:23:00,VALID,916.825,VALID,0,VALID,100,VALID,0.0339617,VALID,20.6274,VALID,6,VALID,0,
2007-06-25, 02:24:00,VALID,916.801,VALID,0,VALID,100,VALID,0.0169808,VALID,20.6406,VALID,14,VALID,0.510603,
2007-06-25, 02:25:01,VALID,916.791,VALID,0,VALID,100,VALID,0,VALID,20.6409,VALID,19,VALID,0.610283,
2007-06-25, 02:26:00,VALID,916.784,VALID,0,VALID,100,VALID,0.0509425,VALID,20.6404,VALID,12,VALID,0.431362,
2007-06-25, 02:27:00,VALID,916.771,VALID,0,VALID,100,VALID,0.0169808,VALID,20.6306,VALID,5,VALID,0.332031,
2007-06-25, 02:28:00,VALID,916.752,VALID,0,VALID,100,VALID,0.0509425,VALID,20.6247,VALID,5,VALID,0.18378,
2007-06-25, 02:29:01,VALID,916.729,VALID,0,VALID,100,VALID,0,VALID,20.6214,VALID,5,VALID,0.282292,
2007-06-25, 02:30:00,VALID,916.724,VALID,0,VALID,100,VALID,0.0169808,VALID,20.6152,VALID,360,VALID,0.307031,
2007-06-25, 02:31:00,VALID,916.73,VALID,0,VALID,100,VALID,0,VALID,20.596,VALID,319,VALID,0.574728,
2007-06-25, 02:32:01,VALID,916.706,VALID,0,VALID,100,VALID,0.0339617,VALID,20.5755,VALID,319,VALID,0.443452,
2007-06-25, 02:33:00,VALID,916.702,VALID,0,VALID,100,VALID,0.0169808,VALID,20.5787,VALID,319,VALID,0.301417,
2007-06-25, 02:34:00,VALID,916.678,VALID,0,VALID,100,VALID,0,VALID,20.5657,VALID,319,VALID,0.0685369,
2007-06-25, 02:35:00,VALID,916.684,VALID,0,VALID,100,VALID,0.0169808,VALID,20.5625,VALID,319,VALID,0,
2007-06-25, 02:36:01,VALID,916.675,VALID,0,VALID,100,VALID,0,VALID,20.5662,VALID,319,VALID,0,
2007-06-25, 02:37:01,VALID,916.683,VALID,0,VALID,100,VALID,0.0169808,VALID,20.5627,VALID,319,VALID,0,
2007-06-25, 02:38:00,VALID,916.718,VALID,0,VALID,100,VALID,0,VALID,20.5427,VALID,319,VALID,0.319727,
2007-06-25, 02:39:01,VALID,916.771,VALID,0,VALID,100,VALID,0,VALID,20.54,VALID,319,VALID,0,
2007-06-25, 02:40:00,VALID,916.791,VALID,0,VALID,100,VALID,0.0169808,VALID,20.5303,VALID,319,VALID,0,
2007-06-25, 02:41:01,VALID,916.789,VALID,0,VALID,100,VALID,0,VALID,20.5303,VALID,319,VALID,0.108631,
2007-06-25, 02:42:01,VALID,916.736,VALID,0,VALID,100,VALID,0,VALID,20.5278,VALID,319,VALID,0.397104,
2007-06-25, 02:43:00,VALID,916.683,VALID,0,VALID,100,VALID,0,VALID,20.5046,VALID,323,VALID,0.617569,
2007-06-25, 02:44:01,VALID,916.648,VALID,0,VALID,100,VALID,0,VALID,20.4789,VALID,21,VALID,0.584872,
2007-06-25, 02:45:01,VALID,916.628,VALID,0,VALID,100,VALID,0.0169808,VALID,20.4359,VALID,28,VALID,0.430382,
2007-06-25, 02:46:01,VALID,916.615,VALID,0,VALID,100,VALID,0,VALID,20.4362,VALID,28,VALID,0.397821,
2007-06-25, 02:47:01,VALID,916.582,VALID,0,VALID,100,VALID,-0.0169808,VALID,20.4327,VALID,28,VALID,0.551525,
2007-06-25, 02:48:00,VALID,916.574,VALID,0,VALID,100,VALID,-0.0169808,VALID,20.4391,VALID,28,VALID,0.460211,
2007-06-25, 02:49:01,VALID,916.585,VALID,0,VALID,100,VALID,0.0169808,VALID,20.4464,VALID,28,VALID,0.331731,
2007-06-25, 02:50:01,VALID,916.586,VALID,0,VALID,100,VALID,0,VALID,20.4454,VALID,28,VALID,0.110137,
2007-06-25, 02:51:01,VALID,916.563,VALID,0,VALID,100,VALID,0.0169808,VALID,20.4424,VALID,28,VALID,0,
2007-06-25, 02:52:00,VALID,916.55,VALID,0,VALID,100,VALID,0.0169808,VALID,20.4524,VALID,28,VALID,0,
2007-06-25, 02:53:01,VALID,916.565,VALID,0,VALID,100,VALID,0,VALID,20.4591,VALID,28,VALID,0,
2007-06-25, 02:54:00,VALID,916.552,VALID,0,VALID,100,VALID,0,VALID,20.4621,VALID,28,VALID,0.0850291,
2007-06-25, 02:55:00,VALID,916.531,VALID,0,VALID,100,VALID,0,VALID,20.4619,VALID,28,VALID,0.00247713,
2007-06-25, 02:56:00,VALID,916.497,VALID,0,VALID,100,VALID,0,VALID,20.4721,VALID,28,VALID,0.283794,
2007-06-25, 02:57:01,VALID,916.46,VALID,0,VALID,100,VALID,0.0169808,VALID,20.4626,VALID,28,VALID,0.52753,
2007-06-25, 02:58:00,VALID,916.445,VALID,0,VALID,100,VALID,0.0169808,VALID,20.4292,VALID,35,VALID,0.520117,
2007-06-25, 02:59:01,VALID,916.431,VALID,0,VALID,100,VALID,-0.0509425,VALID,20.4302,VALID,53,VALID,0.592607,
2007-06-25, 03:00:01,VALID,916.413,VALID,0,VALID,100,VALID,-0.101885,VALID,20.4185,VALID,53,VALID,0.353849,
2007-06-25, 03:01:01,VALID,916.443,VALID,0,VALID,100,VALID,-0.101885,VALID,20.405,VALID,53,VALID,0.263719,
2007-06-25, 03:02:01,VALID,916.461,VALID,0,VALID,100,VALID,-0.101885,VALID,20.3893,VALID,53,VALID,0.203497,
2007-06-25, 03:03:00,VALID,916.464,VALID,0,VALID,100,VALID,-0.0849042,VALID,20.376,VALID,52,VALID,0.483631,
2007-06-25, 03:04:01,VALID,916.457,VALID,0,VALID,100,VALID,-0.0849042,VALID,20.3533,VALID,44,VALID,0.693677,
2007-06-25, 03:05:00,VALID,916.442,VALID,0,VALID,100,VALID,-0.0849042,VALID,20.3401,VALID,40,VALID,0.810454,
2007-06-25, 03:06:01,VALID,916.44,VALID,0,VALID,100,VALID,-0.0849042,VALID,20.3239,VALID,40,VALID,0.747917,
2007-06-25, 03:07:00,VALID,916.414,VALID,0,VALID,100,VALID,-0.101885,VALID,20.2914,VALID,39,VALID,0.631324,
2007-06-25, 03:08:00,VALID,916.4,VALID,0,VALID,100,VALID,-0.101885,VALID,20.2662,VALID,39,VALID,0.43378,
2007-06-25, 03:09:00,VALID,916.376,VALID,0,VALID,100,VALID,-0.101885,VALID,20.2495,VALID,39,VALID,0.287388,
2007-06-25, 03:10:01,VALID,916.347,VALID,0,VALID,100,VALID,-0.101885,VALID,20.246,VALID,39,VALID,0.0206473,
2007-06-25, 03:11:01,VALID,916.361,VALID,0,VALID,100,VALID,-0.101885,VALID,20.2427,VALID,39,VALID,0.0304688,
2007-06-25, 03:12:00,VALID,916.379,VALID,0,VALID,100,VALID,-0.0849042,VALID,20.2525,VALID,39,VALID,0.0355469,
2007-06-25, 03:13:01,VALID,916.384,VALID,0,VALID,100,VALID,-0.101885,VALID,20.2722,VALID,39,VALID,0,
2007-06-25, 03:14:01,VALID,916.391,VALID,0,VALID,100,VALID,-0.0339617,VALID,20.2806,VALID,39,VALID,0.183308,
2007-06-25, 03:15:01,VALID,916.398,VALID,0,VALID,100,VALID,0,VALID,20.3126,VALID,39,VALID,0.431734,
2007-06-25, 03:16:01,VALID,916.385,VALID,0,VALID,100,VALID,-0.0169808,VALID,20.3258,VALID,39,VALID,0.506882,
2007-06-25, 03:17:01,VALID,916.375,VALID,0,VALID,100,VALID,-0.0169808,VALID,20.3258,VALID,39,VALID,0.59654,
2007-06-25, 03:18:01,VALID,916.378,VALID,0,VALID,100,VALID,-0.0169808,VALID,20.3393,VALID,37,VALID,0.577363,
2007-06-25, 03:19:01,VALID,916.382,VALID,0,VALID,100,VALID,0,VALID,20.2996,VALID,29,VALID,0.434338,
2007-06-25, 03:20:01,VALID,916.397,VALID,0,VALID,100,VALID,0,VALID,20.3096,VALID,29,VALID,0.467297,
2007-06-25, 03:21:00,VALID,916.4,VALID,0,VALID,100,VALID,-0.0169808,VALID,20.2999,VALID,29,VALID,0.0865543,
2007-06-25, 03:22:00,VALID,916.429,VALID,0,VALID,100,VALID,0,VALID,20.2934,VALID,29,VALID,0,
2007-06-25, 03:23:00,VALID,916.451,VALID,0,VALID,100,VALID,0,VALID,20.3061,VALID,29,VALID,0,
2007-06-25, 03:24:00,VALID,916.464,VALID,0,VALID,100,VALID,-0.0169808,VALID,20.3361,VALID,29,VALID,0.129724,
2007-06-25, 03:25:00,VALID,916.47,VALID,0,VALID,100,VALID,-0.0169808,VALID,20.3515,VALID,29,VALID,0.356517,
2007-06-25, 03:26:00,VALID,916.456,VALID,0,VALID,100,VALID,0,VALID,20.3813,VALID,29,VALID,0.640253,
2007-06-25, 03:27:00,VALID,916.448,VALID,0,VALID,100,VALID,-0.0169808,VALID,20.3777,VALID,29,VALID,0.793786,
2007-06-25, 03:28:00,VALID,916.446,VALID,0,VALID,100,VALID,-0.0169808,VALID,20.3713,VALID,29,VALID,0.81901,
2007-06-25, 03:29:00,VALID,916.45,VALID,0,VALID,100,VALID,0.0169808,VALID,20.3483,VALID,29,VALID,0.656064,
2007-06-25, 03:30:00,VALID,916.441,VALID,0,VALID,100,VALID,0.0339617,VALID,20.3291,VALID,29,VALID,0.606424,
2007-06-25, 03:31:00,VALID,916.432,VALID,0,VALID,100,VALID,0.0339617,VALID,20.2964,VALID,29,VALID,0.612153,
2007-06-25, 03:32:00,VALID,916.411,VALID,0,VALID,100,VALID,0,VALID,20.2934,VALID,30,VALID,0.959375,
2007-06-25, 03:33:00,VALID,916.397,VALID,0,VALID,100,VALID,0,VALID,20.3001,VALID,30,VALID,0.910689,
2007-06-25, 03:34:00,VALID,916.398,VALID,0,VALID,100,VALID,0,VALID,20.3001,VALID,36,VALID,0.770597,
2007-06-25, 03:35:00,VALID,916.403,VALID,0,VALID,100,VALID,0,VALID,20.2709,VALID,48,VALID,0.506055,
2007-06-25, 03:36:00,VALID,916.43,VALID,0,VALID,100,VALID,-0.0169808,VALID,20.2617,VALID,56,VALID,0.401163,
2007-06-25, 03:37:00,VALID,916.443,VALID,0,VALID,100,VALID,0.0339617,VALID,20.2385,VALID,56,VALID,0.250363,
2007-06-25, 03:38:00,VALID,916.445,VALID,0,VALID,100,VALID,0,VALID,20.2517,VALID,56,VALID,0.0543241,
2007-06-25, 03:39:00,VALID,916.433,VALID,0,VALID,100,VALID,0.0169808,VALID,20.2642,VALID,53,VALID,0.426054,
2007-06-25, 03:40:00,VALID,916.417,VALID,0,VALID,100,VALID,0,VALID,20.2939,VALID,50,VALID,0.608854,
2007-06-25, 03:41:00,VALID,916.442,VALID,0,VALID,100,VALID,0,VALID,20.2742,VALID,47,VALID,0.479768,
2007-06-25, 03:42:00,VALID,916.436,VALID,0,VALID,100,VALID,0.0169808,VALID,20.2609,VALID,22,VALID,0.651414,
2007-06-25, 03:43:00,VALID,916.412,VALID,0,VALID,100,VALID,0.0169808,VALID,20.2514,VALID,18,VALID,0.439024,
2007-06-25, 03:44:00,VALID,916.377,VALID,0,VALID,100,VALID,0.0169808,VALID,20.2607,VALID,20,VALID,0.176599,
2007-06-25, 03:45:00,VALID,916.338,VALID,0,VALID,100,VALID,0.0339617,VALID,20.2449,VALID,20,VALID,0.322545,
2007-06-25, 03:46:00,VALID,916.312,VALID,0,VALID,100,VALID,0.0169808,VALID,20.2479,VALID,20,VALID,0.341025,